Change the Weather History Date:

Sunday, November 4, 2012

  Actual Average Record
Temperature  
Mean Temperature 56 °F -  
Max Temperature 73 °F 72 °F 81 °F (1974)
Min Temperature 39 °F 50 °F 28 °F (1966)
Degree Days  
Heating Degree Days 10    
Growing Degree Days 6 (Base 50)    
Moisture  
Dew Point 47 °F    
Average Humidity 80    
Maximum Humidity 97    
Minimum Humidity 63    
Precipitation  
Precipitation 0.07 in - - ()
Sea Level Pressure  
Sea Level Pressure 29.99 in    
Wind  
Wind Speed 6 mph (NE)    
Max Wind Speed 18 mph    
Max Gust Speed 26 mph    
Visibility 10 miles    
Events Rain    
Averages and records for this station are not official NWS values.
T = Trace of Precipitation, MM = Missing Value Source: NWS Daily Summary

Daily Weather History Graph

Daily Weather History Graph

Search for Another Location

Airport or City:

Trip Planner

Search our weather history database for the weather conditions in past years. The results will help you decide how hot, cold, wet, or windy it might be!

Date:

Astronomy

Nov. 04, 2012 Rise Set
Actual Time 6:30 AM EST 5:09 PM EST
Civil Twilight 6:04 AM EST 5:35 PM EST
Nautical Twilight 5:34 AM EST 6:05 PM EST
Astronomical Twilight 5:04 AM EST 6:35 PM EST
Moon 9:47 PM EST (11/4) 11:10 AM EST (11/4)
Length of Visible Light 11h 31m
Length of Day
10h 39m
Waning Gibbous, 72% of the Moon is Illuminated
Nov 4
Waning Gibbous
Nov 6
Last Quarter
Nov 13
New
Nov 20
First Quarter
Nov 28
Full

Hourly Weather History & Observations

Time (EST) Temp. Windchill Dew Point Humidity Pressure Visibility Wind Dir Wind Speed Gust Speed Precip Events Conditions
12:56 AM 42.1 °F - 39.9 °F 92% 30.08 in 10.0 mi Calm Calm - N/A   Clear
1:56 AM 42.1 °F - 41.0 °F 96% 30.10 in 10.0 mi Calm Calm - N/A   Clear
1:56 AM 39.9 °F - 39.0 °F 97% 30.08 in 10.0 mi Calm Calm - N/A   Clear
2:56 AM 41.0 °F - 39.0 °F 93% 30.08 in 10.0 mi Calm Calm - N/A   Clear
3:56 AM 41.0 °F 39.0 °F 39.0 °F 93% 30.06 in 10.0 mi ESE 3.5 mph - N/A   Clear
4:56 AM 41.0 °F - 39.9 °F 96% 30.07 in 10.0 mi Calm Calm - N/A   Clear
5:56 AM 42.1 °F 40.2 °F 41.0 °F 96% 30.07 in 10.0 mi NE 3.5 mph - N/A   Scattered Clouds
6:56 AM 45.0 °F 41.8 °F 39.9 °F 82% 30.07 in 10.0 mi ENE 5.8 mph - N/A   Partly Cloudy
7:56 AM 50.0 °F - 41.0 °F 71% 30.06 in 10.0 mi ENE 5.8 mph - N/A   Partly Cloudy
8:56 AM 55.9 °F - 46.0 °F 69% 30.03 in 10.0 mi East 9.2 mph - N/A   Partly Cloudy
9:56 AM 63.0 °F - 50.0 °F 63% 30.00 in 10.0 mi East 5.8 mph - N/A   Clear
10:56 AM 68.0 °F - 55.9 °F 65% 29.97 in 10.0 mi East 4.6 mph - N/A   Scattered Clouds
11:33 AM 69.8 °F - 57.2 °F 64% 29.93 in 10.0 mi Variable 4.6 mph - N/A   Overcast
11:56 AM 72.0 °F - 61.0 °F 68% 29.92 in 10.0 mi South 5.8 mph - N/A   Overcast
12:32 PM 71.6 °F - 64.4 °F 78% 29.90 in 10.0 mi SW 11.5 mph - N/A   Scattered Clouds
12:56 PM 70.0 °F - 57.9 °F 65% 29.91 in 10.0 mi NNE 13.8 mph - N/A   Mostly Cloudy
1:13 PM 64.4 °F - 53.6 °F 68% 29.91 in 10.0 mi North 13.8 mph - N/A   Mostly Cloudy
1:41 PM 60.8 °F - 50.0 °F 68% 29.91 in 10.0 mi NNE 16.1 mph 20.7 mph N/A   Partly Cloudy
1:56 PM 60.1 °F - 50.0 °F 69% 29.92 in 10.0 mi North 16.1 mph 26.5 mph N/A   Partly Cloudy
2:24 PM 57.2 °F - 48.2 °F 72% 29.93 in 10.0 mi NNE 18.4 mph - N/A   Mostly Cloudy
2:56 PM 55.9 °F - 46.9 °F 72% 29.94 in 10.0 mi North 13.8 mph - N/A   Overcast
3:56 PM 54.0 °F - 44.1 °F 69% 29.95 in 10.0 mi NNE 15.0 mph 19.6 mph N/A   Overcast
4:33 PM 51.8 °F - 44.6 °F 76% 29.95 in 10.0 mi NNE 12.7 mph - N/A   Scattered Clouds
4:56 PM 52.0 °F - 45.0 °F 77% 29.96 in 10.0 mi NNE 12.7 mph - N/A   Clear
5:56 PM 50.0 °F - 45.0 °F 83% 29.97 in 10.0 mi NNE 13.8 mph - N/A   Partly Cloudy
6:56 PM 48.9 °F - 45.0 °F 86% 29.98 in 10.0 mi North 9.2 mph - N/A   Clear
7:56 PM 50.0 °F - 46.0 °F 86% 29.98 in 10.0 mi NNE 8.1 mph - N/A   Partly Cloudy
8:56 PM 50.0 °F - 46.9 °F 89% 29.98 in 10.0 mi North 8.1 mph - 0.00 in Rain Light Rain
9:56 PM 48.9 °F - 48.0 °F 97% 29.96 in 7.0 mi NE 6.9 mph - 0.07 in Rain Light Rain
10:56 PM 48.9 °F - 48.0 °F 97% 30.00 in 10.0 mi NNW 12.7 mph - 0.00 in   Mostly Cloudy